Find Starlink 31404

NORAD ID: 59521 Int'l Des: 2024-073 Owner: SPXS Country: US Constellation: starlink operational
LEOCIRCULAR

現在のビュー

3D地球を読み込み中...

About Starlink 31404

Starlink 31404 (NORAD 59521) is a starlink constellation satellite (v2 mini) launched Apr 17, 2024 by SPXS of US. It operates in LEO, CIRCULAR orbit with a mass of 730.00 kg.

Starlink 31404について

説明を読み込み中...

次回通過

Passes for default location (London). Set your location on the main map for personalized predictions.

高度履歴

Loading altitude history...

軌道要素

1 59521U 24073L 26170.11644780 -.00000114 00000-0 53748-5 0 9994
2 59521 43.0027 105.5489 0000837 237.6190 122.4580 15.27580215121684
Epoch: Jun 19, 2026 • Age: 14 hours

現在のステータス

高度 485.4 km
速度 7.62 km/s
衛星直下点 -12.72°S, 72.16°W
打ち上げ日 Apr 17, 2024
運用期間 2.1 years
タイプ internet

技術仕様

分類 Payload
質量 730.00 kg
乾燥質量 700.00 kg
総質量 730.00 kg
長さ 0.30 m
直径 4.10 m
スパン 29.00 m
形状 Box + pan
製造者 SPXS
バスタイプ Starlink V2M
フェーズステータス In Orbit
所有者/国 SPXS/US

Most Searched